Simultaneous Nadir Overpasses (SNOs) Predictions

Prediction of SNOs between NOAA-19 and TERRA Satellite Orbit:

Table of predicted SNOs for the next 14.0 days since TLE Epoch: 10/10/2015
Index Date (NOAA-19) Time (NOAA-19) Lat,Lon (NOAA-19) SZA (NOAA-19 ) Date (TERRA) Time (TERRA) Lat,Lon (TERRA) SZA (TERRA ) Distance(km) Time Diff (sec)
1 10/10/2015 04:34:58 72.54, 116.14 79.12 10/10/2015 04:34:45 72.55, 116.09 79.14 2.61 13
2 10/12/2015 09:18:16 72.65, 45.11 80.07 10/12/2015 09:19:03 72.64, 45.18 80.07 2.28 47
3 10/12/2015 10:09:09 -72.52,-147.33 100.05 10/12/2015 10:08:33 -72.53,-147.41 100.05 3.01 36
4 10/14/2015 14:52:26 -72.60, 141.72 99.14 10/14/2015 14:52:51 -72.61, 141.67 99.13 1.88 25
5 10/14/2015 15:43:31 72.50, -50.85 80.79 10/14/2015 15:42:18 72.52, -50.86 80.79 2.13 73
6 10/16/2015 19:35:53 -73.19, 69.65 97.79 10/16/2015 19:37:02 -73.06, 71.45 97.83 59.85 69
7 10/16/2015 20:26:48 72.58,-121.79 81.68 10/16/2015 20:26:36 72.60,-121.80 81.69 1.79 12
8 10/19/2015 01:10:05 72.67, 167.25 82.56 10/19/2015 01:10:54 72.67, 167.25 82.57 0.10 49
9 10/19/2015 02:00:58 -72.56, -25.26 97.53 10/19/2015 02:00:24 -72.56, -25.33 97.55 2.43 34
10 10/21/2015 06:44:15 -72.66, -96.23 96.65 10/21/2015 06:44:41 -72.67, -96.19 96.63 2.12 26
11 10/21/2015 07:35:20 72.54, 71.25 83.26 10/21/2015 07:34:09 72.52, 71.18 83.23 2.65 71
12 10/23/2015 11:27:43 -73.30,-168.44 95.28 10/23/2015 11:28:51 -73.15,-166.33 95.33 69.58 68
13 10/23/2015 12:18:37 72.63, 0.27
